FW1203 Weather Reports


Display with metric or nautical units.
time (UTC)temp
F
wind
direction
speed
MPH
gust
MPH
rain 1hr
in
rain 24hr
in
rain mn
in
humidity
%
barometer
mb
20260902182306 95 0 0.0 0.0 0.00 0.00 0.00 59 1010.8
20260902181803 95 0 0.0 0.0 0.00 0.00 0.00 63 1010.8
20260902181303 95 0 0.0 0.0 0.00 0.00 0.00 61 1010.8
20260902180803 95 0 0.0 0.0 0.00 0.00 0.00 61 1010.8
20260902180303 95 0 0.0 0.0 0.00 0.00 0.00 62 1010.9
20260902175803 95 0 0.0 0.0 0.00 0.00 0.00 63 1010.9
20260902175307 95 0 0.0 0.0 0.00 0.00 0.00 62 1010.9
20260902174803 95 0 0.0 0.0 0.00 0.00 0.00 62 1011.0
20260902174303 95 0 0.0 0.0 0.00 0.00 0.00 62 1011.0
20260902173803 95 0 0.0 0.0 0.00 0.00 0.00 63 1011.1
20260902173303 95 0 0.0 0.0 0.00 0.00 0.00 59 1011.1
20260902172803 95 0 0.0 0.0 0.00 0.00 0.00 60 1011.2
20260902172307 95 0 0.0 0.0 0.00 0.00 0.00 61 1011.2
20260902171803 95 0 0.0 0.0 0.00 0.00 0.00 63 1011.3
20260902171303 95 0 0.0 0.0 0.00 0.00 0.00 62 1011.2
20260902170803 94 0 0.0 0.0 0.00 0.00 0.00 61 1011.4
20260902170303 94 0 0.0 0.0 0.00 0.00 0.00 63 1011.4
20260902165803 94 0 0.0 0.0 0.00 0.00 0.00 64 1011.4
20260902165308 93 0 0.0 0.0 0.00 0.00 0.00 65 1011.6
20260902164803 93 0 0.0 0.0 0.00 0.00 0.00 66 1011.7
20260902164303 93 0 0.0 0.0 0.00 0.00 0.00 65 1011.7
20260902163803 92 0 0.0 0.0 0.00 0.00 0.00 65 1011.7
20260902163303 92 0 0.0 0.0 0.00 0.00 0.00 67 1011.7
20260902162803 92 0 0.0 0.0 0.00 0.00 0.00 67 1012.0
20260902162306 91 0 0.0 0.0 0.00 0.00 0.00 69 1011.9
20260902161803 91 0 0.0 0.0 0.00 0.00 0.00 67 1011.7
20260902161303 91 0 0.0 0.0 0.00 0.00 0.00 68 1011.8
20260902160803 91 0 0.0 0.0 0.00 0.00 0.00 68 1011.7
20260902160303 90 0 0.0 0.0 0.00 0.00 0.00 69 1011.6
20260902155803 90 0 0.0 0.0 0.00 0.00 0.00 70 1011.7
20260902155306 89 0 0.0 0.0 0.00 0.00 0.00 70 1011.7
20260902154803 89 0 0.0 0.0 0.00 0.00 0.00 72 1011.8
20260902154303 89 0 0.0 0.0 0.00 0.00 0.00 72 1011.7
20260902153803 88 0 0.0 0.0 0.00 0.00 0.00 73 1011.9
20260902153303 88 0 0.0 0.0 0.00 0.00 0.00 74 1011.8
20260902152803 87 0 0.0 0.0 0.00 0.00 0.00 74 1011.9
20260902152307 87 0 0.0 0.0 0.00 0.00 0.00 76 1011.8
20260902151803 87 0 0.0 0.0 0.00 0.00 0.00 75 1012.0
20260902151303 86 0 0.0 0.0 0.00 0.00 0.00 75 1011.9
20260902150803 86 0 0.0 0.0 0.00 0.00 0.00 77 1012.0
20260902150303 86 0 0.0 0.0 0.00 0.00 0.00 76 1011.9
20260902145803 86 0 0.0 0.0 0.00 0.00 0.00 77 1011.9
20260902145305 85 0 0.0 0.0 0.00 0.00 0.00 78 1011.9
20260902144803 85 0 0.0 0.0 0.00 0.00 0.00 76 1012.0
20260902144303 85 0 0.0 0.0 0.00 0.00 0.00 76 1012.1
20260902143803 85 0 0.0 0.0 0.00 0.00 0.00 77 1012.1
20260902143303 85 0 0.0 0.0 0.00 0.00 0.00 77 1012.2
20260902142803 85 0 0.0 0.0 0.00 0.00 0.00 76 1012.1
20260902142306 85 0 0.0 0.0 0.00 0.00 0.00 77 1012.2
20260902141803 85 0 0.0 0.0 0.00 0.00 0.00 78 1012.1
20260902141303 84 0 0.0 0.0 0.00 0.00 0.00 79 1012.3
20260902140803 84 0 0.0 0.0 0.00 0.00 0.00 78 1012.1
20260902140303 83 0 0.0 0.0 0.00 0.00 0.00 81 1012.3
20260902135803 83 0 0.0 0.0 0.00 0.00 0.00 81 1012.3
20260902135306 82 0 0.0 0.0 0.00 0.00 0.00 82 1012.1
20260902134803 81 0 0.0 0.0 0.00 0.00 0.00 84 1012.4
20260902134303 81 0 0.0 0.0 0.00 0.00 0.00 84 1012.1
20260902133803 80 0 0.0 0.0 0.00 0.00 0.00 85 1012.1
20260902133303 80 0 0.0 0.0 0.00 0.00 0.00 87 1012.4
20260902132803 80 0 0.0 0.0 0.00 0.00 0.00 87 1012.0
20260902132306 79 0 0.0 0.0 0.00 0.00 0.00 87 1011.9
20260902131803 79 0 0.0 0.0 0.00 0.00 0.00 87 1011.9
20260902131303 79 0 0.0 0.0 0.00 0.00 0.00 88 1012.0
20260902130803 78 0 0.0 0.0 0.00 0.00 0.00 88 1012.0
20260902130303 78 0 0.0 0.0 0.00 0.00 0.00 89 1012.1
20260902125803 77 0 0.0 0.0 0.00 0.00 0.00 89 1012.1
20260902125305 77 0 0.0 0.0 0.00 0.00 0.00 89 1012.2
20260902124803 77 0 0.0 0.0 0.00 0.00 0.00 90 1012.3
20260902124303 76 0 0.0 0.0 0.00 0.00 0.00 91 1012.3
20260902123803 76 0 0.0 0.0 0.00 0.00 0.00 91 1011.9
20260902123303 76 0 0.0 0.0 0.00 0.00 0.00 91 1012.0
20260902122803 76 0 0.0 0.0 0.00 0.00 0.00 91 1012.0
20260902122305 76 0 0.0 0.0 0.00 0.00 0.00 92 1012.0
20260902121803 76 0 0.0 0.0 0.00 0.00 0.00 92 1011.9
20260902121303 76 0 0.0 0.0 0.00 0.00 0.00 92 1011.9
20260902120803 76 0 0.0 0.0 0.00 0.00 0.00 91 1011.9
20260902120303 75 0 0.0 0.0 0.00 0.00 0.00 91 1011.9
20260902115803 75 0 0.0 0.0 0.00 0.00 0.00 91 1012.0
20260902115306 75 0 0.0 0.0 0.00 0.00 0.00 91 1011.9
20260902114803 75 0 0.0 0.0 0.00 0.00 0.00 91 1011.9
20260902114303 75 0 0.0 0.0 0.00 0.00 0.00 91 1011.8
20260902113803 75 0 0.0 0.0 0.00 0.00 0.00 91 1011.9
20260902113303 75 0 0.0 0.0 0.00 0.00 0.00 90 1011.9
20260902112803 75 0 0.0 0.0 0.00 0.00 0.00 90 1011.9
20260902112305 76 0 0.0 0.0 0.00 0.00 0.00 90 1011.8
20260902111803 76 0 0.0 0.0 0.00 0.00 0.00 90 1011.8
20260902111303 76 0 0.0 0.0 0.00 0.00 0.00 90 1011.9
20260902110803 76 0 0.0 0.0 0.00 0.00 0.00 90 1011.9
20260902110303 76 0 0.0 0.0 0.00 0.00 0.00 90 1011.9
20260902105803 76 0 0.0 0.0 0.00 0.00 0.00 90 1012.0
20260902105306 76 0 0.0 0.0 0.00 0.00 0.00 90 1011.8
20260902104803 76 0 0.0 0.0 0.00 0.00 0.00 90 1011.8
20260902104303 76 0 0.0 0.0 0.00 0.00 0.00 90 1011.8
20260902103803 76 0 0.0 0.0 0.00 0.00 0.00 90 1011.8
20260902103303 76 0 0.0 0.0 0.00 0.00 0.00 90 1011.8
20260902102803 76 0 0.0 0.0 0.00 0.00 0.00 90 1011.8
20260902102307 76 0 0.0 0.0 0.00 0.00 0.00 90 1011.7
20260902101803 76 0 0.0 0.0 0.00 0.00 0.00 90 1011.8
20260902101303 76 0 0.0 0.0 0.00 0.00 0.00 90 1011.8
20260902100803 76 0 0.0 0.0 0.00 0.00 0.00 89 1011.8
20260902100303 76 0 0.0 0.0 0.00 0.00 0.00 90 1011.8
20260902095803 76 0 0.0 0.0 0.00 0.00 0.00 89 1011.8
20260902095306 76 0 0.0 0.0 0.00 0.00 0.00 89 1011.8
20260902094803 77 0 0.0 0.0 0.00 0.00 0.00 89 1011.8
20260902094303 77 0 0.0 0.0 0.00 0.00 0.00 89 1011.9
20260902093803 77 0 0.0 0.0 0.00 0.00 0.00 89 1011.9
20260902093303 77 0 0.0 0.0 0.00 0.00 0.00 89 1012.0
20260902092803 77 0 0.0 0.0 0.00 0.00 0.00 89 1011.9
20260902092305 77 0 0.0 0.0 0.00 0.00 0.00 88 1011.8
20260902091803 77 0 0.0 0.0 0.00 0.00 0.00 88 1011.8
20260902091303 77 0 0.0 0.0 0.00 0.00 0.00 88 1011.8
20260902090803 77 0 0.0 0.0 0.00 0.00 0.00 88 1011.8
20260902090303 77 0 0.0 0.0 0.00 0.00 0.00 88 1011.7
20260902085803 77 0 0.0 0.0 0.00 0.00 0.00 88 1011.7
20260902085306 77 0 0.0 0.0 0.00 0.00 0.00 88 1011.7
20260902084803 77 0 0.0 0.0 0.00 0.00 0.00 88 1011.7
20260902084303 77 0 0.0 0.0 0.00 0.00 0.00 89 1011.8
20260902083803 77 0 0.0 0.0 0.00 0.00 0.00 89 1011.7
20260902083303 77 0 0.0 0.0 0.00 0.00 0.00 89 1011.6
20260902082803 77 0 0.0 0.0 0.00 0.00 0.00 89 1011.6
20260902082308 77 0 0.0 0.0 0.00 0.00 0.00 89 1011.5
20260902081803 77 0 0.0 0.0 0.00 0.00 0.00 89 1011.4
20260902081303 77 0 0.0 0.0 0.00 0.00 0.00 89 1011.5
20260902080803 78 0 0.0 0.0 0.00 0.00 0.00 89 1011.4
20260902080303 78 0 0.0 0.0 0.00 0.00 0.00 89 1011.5
20260902075803 78 0 0.0 0.0 0.00 0.00 0.00 88 1011.4
20260902075306 78 0 0.0 0.0 0.00 0.00 0.00 88 1011.5
20260902074803 78 0 0.0 0.0 0.00 0.00 0.00 88 1011.5
20260902074303 78 0 0.0 0.0 0.00 0.00 0.00 88 1011.6
20260902073803 78 0 0.0 0.0 0.00 0.00 0.00 88 1011.6
20260902073303 78 0 0.0 0.0 0.00 0.00 0.00 88 1011.5
20260902072803 78 0 0.0 0.0 0.00 0.00 0.00 88 1011.4
20260902072308 78 0 0.0 0.0 0.00 0.00 0.00 88 1011.4
20260902071803 78 0 0.0 0.0 0.00 0.00 0.00 87 1011.4
20260902071303 78 0 0.0 0.0 0.00 0.00 0.00 87 1011.5
20260902070803 79 0 0.0 0.0 0.00 0.00 0.00 87 1011.5
20260902070303 79 0 0.0 0.0 0.00 0.00 0.00 87 1011.5
20260902065803 79 0 0.0 0.0 0.00 0.00 0.00 87 1011.6
20260902065306 79 0 0.0 0.0 0.00 0.00 0.00 87 1011.6
20260902064803 79 0 0.0 0.0 0.00 0.00 0.00 87 1011.7
20260902064303 79 0 0.0 0.0 0.00 0.00 0.00 87 1011.7
20260902063803 79 0 0.0 0.0 0.00 0.00 0.00 87 1011.6
20260902063303 79 0 0.0 0.0 0.00 0.00 0.00 86 1011.7
20260902062803 79 0 0.0 0.0 0.00 0.00 0.00 86 1011.6
20260902062305 79 0 0.0 0.0 0.00 0.00 0.00 86 1011.6
20260902061803 80 0 0.0 0.0 0.00 0.00 0.00 86 1011.5
20260902060803 80 0 0.0 0.0 0.00 0.00 0.00 85 1011.6
20260902060303 80 0 0.0 0.0 0.00 0.00 0.00 85 1011.6
20260902055803 80 0 0.0 0.0 0.00 0.00 0.00 85 1011.6
20260902055306 80 0 0.0 0.0 0.00 0.00 0.00 85 1011.5
20260902054803 80 0 0.0 0.0 0.00 0.00 0.00 85 1011.4
20260902054303 81 0 0.0 0.0 0.00 0.00 0.00 85 1011.3
20260902053803 81 0 0.0 0.0 0.00 0.00 0.00 85 1011.3
20260902053303 81 0 0.0 0.0 0.00 0.00 0.00 85 1011.4
20260902052803 81 0 0.0 0.0 0.00 0.00 0.00 85 1011.4
20260902052306 81 0 0.0 0.0 0.00 0.00 0.00 85 1011.4
20260902051803 81 0 0.0 0.0 0.00 0.00 0.00 85 1011.4
20260902051303 81 0 0.0 0.0 0.00 0.00 0.00 85 1011.4
20260902050803 81 0 0.0 0.0 0.00 0.00 0.00 85 1011.5
20260902050303 81 0 0.0 0.0 0.00 0.00 0.00 85 1011.6
20260902045803 81 0 0.0 0.0 0.00 0.00 0.00 84 1011.6
20260902045306 81 0 0.0 0.0 0.00 0.00 0.00 84 1011.6
20260902044803 81 0 0.0 0.0 0.00 0.00 0.00 84 1011.6
20260902044303 81 0 0.0 0.0 0.00 0.00 0.00 84 1011.6
20260902043803 81 0 0.0 0.0 0.00 0.00 0.00 84 1011.4
20260902043303 81 0 0.0 0.0 0.00 0.00 0.00 83 1011.4
20260902042803 81 0 0.0 0.0 0.00 0.00 0.00 83 1011.3
20260902042308 82 0 0.0 0.0 0.00 0.00 0.00 83 1011.4
20260902041803 82 0 0.0 0.0 0.00 0.00 0.00 83 1011.5
20260902041303 82 0 0.0 0.0 0.00 0.00 0.00 83 1011.5
20260902040803 82 0 0.0 0.0 0.00 0.00 0.00 83 1011.4
20260902040303 82 0 0.0 0.0 0.00 0.00 0.00 83 1011.6
20260902035803 82 0 0.0 0.0 0.00 0.00 0.00 83 1011.6
20260902035305 82 0 0.0 0.0 0.00 0.00 0.00 83 1011.7
20260902034803 82 0 0.0 0.0 0.00 0.00 0.00 82 1011.7
20260902034303 82 0 0.0 0.0 0.00 0.00 0.00 82 1011.7
20260902033803 82 0 0.0 0.0 0.00 0.00 0.00 82 1011.7
20260902033303 83 0 0.0 0.0 0.00 0.00 0.00 81 1011.7
20260902032803 83 0 0.0 0.0 0.00 0.00 0.00 81 1011.7
20260902032305 83 0 0.0 0.0 0.00 0.00 0.00 81 1011.7
20260902031803 83 0 0.0 0.0 0.00 0.00 0.00 81 1011.7
20260902031303 83 0 0.0 0.0 0.00 0.00 0.00 81 1011.8
20260902030803 83 0 0.0 0.0 0.00 0.00 0.00 81 1011.8
20260902030303 83 0 0.0 0.0 0.00 0.00 0.00 80 1011.9
20260902025803 83 0 0.0 0.0 0.00 0.00 0.00 80 1011.8
20260902025306 83 0 0.0 0.0 0.00 0.00 0.00 80 1011.8
20260902024803 83 0 0.0 0.0 0.00 0.00 0.00 80 1011.7
20260902024303 83 0 0.0 0.0 0.00 0.00 0.00 80 1011.7
20260902023803 83 0 0.0 0.0 0.00 0.00 0.00 80 1011.7
20260902023303 84 0 0.0 0.0 0.00 0.00 0.00 80 1011.6
20260902022803 84 0 0.0 0.0 0.00 0.00 0.00 80 1011.6
20260902022305 84 0 0.0 0.0 0.00 0.00 0.00 79 1011.6
20260902021803 84 0 0.0 0.0 0.00 0.00 0.00 79 1011.6
20260902021303 84 0 0.0 0.0 0.00 0.00 0.00 79 1011.6
20260902020803 84 0 0.0 0.0 0.00 0.00 0.00 79 1011.4
20260902020303 84 0 0.0 0.0 0.00 0.00 0.00 79 1011.4
20260902015803 85 0 0.0 0.0 0.00 0.00 0.00 79 1011.4
20260902015305 85 0 0.0 0.0 0.00 0.00 0.00 79 1011.3
20260902014803 85 0 0.0 0.0 0.00 0.00 0.00 79 1011.3
20260902014303 85 0 0.0 0.0 0.00 0.00 0.00 79 1011.3
20260902013803 85 0 0.0 0.0 0.00 0.00 0.00 79 1011.2
20260902013303 85 0 0.0 0.0 0.00 0.00 0.00 79 1011.2
20260902012308 86 0 0.0 0.0 0.00 0.00 0.00 78 1011.0
20260902011803 86 0 0.0 0.0 0.00 0.00 0.00 78 1010.9
20260902011303 86 0 0.0 0.0 0.00 0.00 0.00 78 1010.9
20260902010803 86 0 0.0 0.0 0.00 0.00 0.00 78 1010.9
20260902010303 87 0 0.0 0.0 0.00 0.00 0.00 78 1010.8
20260902005803 87 0 0.0 0.0 0.00 0.00 0.00 77 1010.6
20260902005305 87 0 0.0 0.0 0.00 0.00 0.00 77 1010.5
20260902004803 87 0 0.0 0.0 0.00 0.00 0.00 76 1010.5
20260902004303 87 0 0.0 0.0 0.00 0.00 0.00 76 1010.5
20260902003803 88 0 0.0 0.0 0.00 0.00 0.00 76 1010.4
20260902003303 88 0 0.0 0.0 0.00 0.00 0.00 76 1010.4
20260902002803 88 0 0.0 0.0 0.00 0.00 0.00 76 1010.4
20260902002306 88 0 0.0 0.0 0.00 0.00 0.00 76 1010.4
20260902001803 88 0 0.0 0.0 0.00 0.00 0.00 76 1010.5
20260902001303 88 0 0.0 0.0 0.00 0.00 0.00 76 1010.5
20260902000803 89 0 0.0 0.0 0.00 0.00 0.00 76 1010.5
20260902000304 89 0 0.0 0.0 0.00 0.00 0.00 76 1010.5
20260901235803 89 0 0.0 0.0 0.00 0.00 0.00 76 1010.5
20260901235307 89 0 0.0 0.0 0.00 0.00 0.00 75 1010.7
20260901234803 89 0 0.0 0.0 0.00 0.00 0.00 75 1010.7
20260901234303 90 0 0.0 0.0 0.00 0.00 0.00 75 1010.7
20260901233803 90 0 0.0 0.0 0.00 0.00 0.00 74 1010.6
20260901233303 90 0 0.0 0.0 0.00 0.00 0.00 74 1010.7
20260901232803 90 0 0.0 0.0 0.00 0.00 0.00 74 1010.8
20260901232306 90 0 0.0 0.0 0.00 0.00 0.00 74 1010.8
20260901231803 90 0 0.0 0.0 0.00 0.00 0.00 73 1010.9
20260901231303 90 0 0.0 0.0 0.00 0.00 0.00 74 1010.9
20260901230803 90 0 0.0 0.0 0.00 0.00 0.00 73 1010.9
20260901230303 91 0 0.0 0.0 0.00 0.00 0.00 73 1010.8
20260901225803 91 0 0.0 0.0 0.00 0.00 0.00 73 1010.8
20260901225306 91 0 0.0 0.0 0.00 0.00 0.00 72 1010.8
20260901224803 91 0 0.0 0.0 0.00 0.00 0.00 73 1010.8
20260901224303 91 0 0.0 0.0 0.00 0.00 0.00 73 1010.9
20260901223803 91 0 0.0 0.0 0.00 0.00 0.00 72 1011.0
20260901223303 91 0 0.0 0.0 0.00 0.00 0.00 71 1011.0
20260901222803 91 0 0.0 0.0 0.00 0.00 0.00 71 1011.0
20260901222306 91 0 0.0 0.0 0.00 0.00 0.00 72 1011.0
20260901221803 92 0 0.0 0.0 0.00 0.00 0.00 71 1011.0
20260901221303 92 0 0.0 0.0 0.00 0.00 0.00 71 1011.0
20260901220303 92 0 0.0 0.0 0.00 0.00 0.00 70 1010.9
20260901215803 93 0 0.0 0.0 0.00 0.00 0.00 69 1010.9
20260901215305 93 0 0.0 0.0 0.00 0.00 0.00 69 1010.8
20260901214803 93 0 0.0 0.0 0.00 0.00 0.00 69 1010.8
20260901214303 93 0 0.0 0.0 0.00 0.01 0.00 69 1010.8
20260901213803 94 0 0.0 0.0 0.00 0.01 0.00 68 1010.8
20260901213303 94 0 0.0 0.0 0.00 0.01 0.00 68 1010.8
20260901212803 94 0 0.0 0.0 0.00 0.02 0.00 67 1010.9
20260901212306 94 0 0.0 0.0 0.00 0.03 0.00 67 1011.0
20260901211803 94 0 0.0 0.0 0.00 0.03 0.00 68 1011.0
20260901211303 94 0 0.0 0.0 0.00 0.03 0.00 66 1011.1
20260901210803 94 0 0.0 0.0 0.00 0.03 0.00 66 1011.1
20260901210303 94 0 0.0 0.0 0.00 0.03 0.00 67 1011.1
20260901205803 95 0 0.0 0.0 0.00 0.03 0.00 66 1011.1
20260901205306 95 0 0.0 0.0 0.00 0.06 0.00 66 1011.1
20260901204803 95 0 0.0 0.0 0.00 0.06 0.00 67 1011.1
20260901204303 95 0 0.0 0.0 0.00 0.06 0.00 67 1011.1
20260901203803 95 0 0.0 0.0 0.00 0.06 0.00 65 1011.2
20260901203303 95 0 0.0 0.0 0.00 0.06 0.00 65 1011.2
20260901202803 96 0 0.0 0.0 0.00 0.06 0.00 64 1011.2
20260901202306 96 0 0.0 0.0 0.00 0.06 0.00 64 1011.3
20260901201803 96 0 0.0 0.0 0.00 0.06 0.00 64 1011.2
20260901201303 96 0 0.0 0.0 0.00 0.06 0.00 64 1011.3
20260901200803 96 0 0.0 0.0 0.00 0.06 0.00 65 1011.2
20260901200303 96 0 0.0 0.0 0.00 0.06 0.00 64 1011.3
20260901195803 96 0 0.0 0.0 0.00 0.06 0.00 64 1011.3
20260901195305 96 0 0.0 0.0 0.00 0.06 0.00 64 1011.2
20260901194803 96 0 0.0 0.0 0.00 0.06 0.00 65 1011.3
20260901194303 96 0 0.0 0.0 0.00 0.06 0.00 65 1011.3
20260901193803 95 0 0.0 0.0 0.00 0.06 0.00 66 1011.4
20260901193303 95 0 0.0 0.0 0.00 0.06 0.00 69 1011.5
20260901192803 94 0 0.0 0.0 0.00 0.06 0.00 68 1011.6
20260901192306 94 0 0.0 0.0 0.00 0.06 0.00 71 1011.5
20260901191803 93 0 0.0 0.0 0.00 0.06 0.00 74 1011.6
20260901191303 93 0 0.0 0.0 0.00 0.06 0.00 74 1011.6
20260901190803 93 0 0.0 0.0 0.00 0.06 0.00 73 1011.6
20260901190303 93 0 0.0 0.0 0.00 0.06 0.00 73 1011.6
20260901185803 93 0 0.0 0.0 0.00 0.06 0.00 72 1011.6
20260901185305 93 0 0.0 0.0 0.00 0.06 0.00 73 1011.7
20260901184803 93 0 0.0 0.0 0.00 0.06 0.00 73 1011.8
20260901184303 93 0 0.0 0.0 0.00 0.06 0.00 72 1011.8
20260901183803 94 0 0.0 0.0 0.00 0.06 0.00 71 1011.9
20260901183303 94 0 0.0 0.0 0.00 0.06 0.00 71 1011.9
20260901182803 94 0 0.0 0.0 0.00 0.06 0.00 72 1011.9